DMSP 5D-2 F13 DEB, 40438

Orbit data source: Space-Track

DMSP 5D-2 F13 DEB, 40438 is space debris in SSO originally from a launch on Fri, 24 Mar 1995 UTC launched from the Air Force Western Test Range (AFWTR). Debris objects in space refer to the collection of defunct objects orbiting the Earth. Examples of debris include non-operational satellites, rocket bodies, and fragments generated from explosions, collisions, or faulty payload assembly.

Loading next visibility...
Identifier
40438, 1995-015AQ
Orbit
SSO
Country
Flag of USUS
Related business
Manufacturer
Unknown
Mission
Spacecraft
Bus & Motor
Unknown
Mass
Unknown
Launch date (UTC)
1995-03-24 (31 years ago)
Launch vehicle
Unknown
Launch site
Air Force Western Test Range (AFWTR)
Object type
Payload
Rocket body
Debris
Shape & HBR
Unknown shape, 0.1 m
Radar Cross Section
Small (<0.1 m²)

Expand to show TLE details & history
Last TLE update: 1 day ago

TLE from 1 day ago
0 DMSP 5D-2 F13 DEB
1 40438U 95015AQ  25303.59964050  .00132601  00000-0  12110-1 0  9999
2 40438  98.8321 353.1466 0007356   9.0308 351.1040 14.94323240554045
Epoch: 2025-10-30T14:23Z
TLE epoch observation values (Epoch: 2025-10-30T14:23:28.939Z)
Latitude
0.00001°
Longitude
98.11991°
Altitude
582.424 km
Speed
7.572 km/s
True Right ascension
23h 32m 35s
True Declination
0° 00' 00"
Sunlit
Object was in full shadow at epoch
Visualization orbit readout
Latitude
Unknown
Longitude
Unknown
Altitude
Unknown
Speed
Unknown
Apparent Right ascension
Unknown
Apparent Declination
Unknown
Sunlit
N/A
Visualization observer readout
Local Sidereal Time
11:53:58
Azimuth
Unknown
Elevation
Unknown
Doppler factor
Unknown
Orbital elements
Apogee altitude
586.66 km
Perigee altitude
576.421 km
Semi-major axis
6,959.677 km
Eccentricity
0.00074
Inclination
98.8321°
RAAN
353.1466°
Arg. of periapsis
9.0308°
True anomaly
351.09095°
Mean anomaly
351.104°
Eccentric anomaly
351.09748°
Mean motion
3.73817 °/min
Orbital period
96.3 mins
BSTAR
0.01211
Loading maneuver chart data...
Computing Atmospheric mass density...

Documentation

Showing up to 5 results
|